Flag for Brazil Weather past 2 weeks in Curitiba, Paraná, Brazil

Now
57 °F

Broken clouds.


Feels Like: 54 °F
Forecast: 53 / 63 °F
Wind: 14 mph from Southeast

Location: Curitiba Aeroporto

Current Time: Oct 2, 2014 at 11:35:11 AM

Latest Report: Oct 2, 2014 at 11:00 AM


Visibility: N/A

Pressure: 30.39 "Hg

Humidity: 82%

Dew point: 52 °F

Location of CuritibaLocation

Historic Weather in Curitiba — Graph

°F

Curitiba temperature yesterday

Maximum temperature yesterday: 77 °F (at 11:00 AM)
Minimum temperature yesterday: 43 °F (at 3:00 AM)
Average temperature yesterday: 66 °F

Past Weeks' High & Low Weather Summary

 TemperatureHumidityPressure
High77 °F (Sep 30, 2:00 PM)100% (Sep 18, 5:00 AM)30.36 "Hg (Sep 18, 5:00 AM)
Low39 °F (Sep 19, 6:00 AM)43% (Sep 21, 3:00 PM)29.92 "Hg (Sep 19, 5:00 PM)
Average60 °F92%30.10 "Hg
* Reported Sep 17 10:00 AM — Oct 2 10:00 AM, Curitiba, Weather by CustomWeather, © 2014

Note: Actual official high and low records may vary slightly from our data, if they occured in-between our weather recording intervals... More about our weather records

Advertising

Curitiba weather history for previous 24 hours

 ConditionsComfort  
Time TempWeatherWind HumidityBarometerVisibility
10:00 AM
Oct 2
57 °FPartly sunny.16 mph77%30.36 "HgN/A
9:00 AM55 °FPartly sunny.21 mph82%30.36 "HgN/A
8:00 AM55 °FPartly sunny.15 mph82%30.33 "HgN/A
7:00 AM52 °FPassing clouds.9 mph88%30.30 "HgN/A
6:00 AM50 °FBroken clouds.10 mph94%30.30 "HgN/A
5:10 AM52 °FBroken clouds.15 mph88%30.27 "HgN/A
5:00 AM52 °FPartly sunny.15 mph94%30.27 "HgN/A
4:00 AM54 °FLow clouds.12 mph100%30.24 "HgN/A
3:00 AM55 °FLow clouds.10 mph100%30.24 "HgN/A
2:00 AM55 °FMostly cloudy.14 mph100%30.24 "HgN/A
1:00 AM55 °FMostly cloudy.12 mph100%30.24 "HgN/A
12:00 AM57 °FDrizzle. Mostly cloudy.13 mph100%30.24 "Hg4 mi
11:00 PM
Oct 1
57 °FDrizzle. Mostly cloudy.12 mph100%30.24 "Hg4 mi
10:00 PM57 °FDrizzle. Mostly cloudy.9 mph100%30.24 "Hg4 mi
9:00 PM59 °FMostly cloudy.10 mph100%30.21 "Hg5 mi
8:00 PM63 °FPassing clouds.9 mph100%30.18 "HgN/A
7:00 PM64 °FPassing clouds.7 mph100%30.15 "Hg4 mi
6:00 PM70 °FPassing clouds.7 mph88%30.12 "HgN/A
5:00 PM75 °FScattered clouds.8 mph69%30.09 "HgN/A
4:00 PM75 °FBroken clouds.12 mph69%30.09 "HgN/A
3:00 PM75 °FPartly sunny.13 mph65%30.07 "HgN/A
2:00 PM75 °FBroken clouds.12 mph69%30.07 "HgN/A
1:00 PM77 °FPartly sunny.10 mph65%30.07 "HgN/A
12:00 PM77 °FPassing clouds.10 mph65%30.07 "HgN/A
11:00 AM77 °FSunny.10 mph69%30.07 "Hg10 mi
Weather by CustomWeather, © 2014

See weather overviewHow to use our weather pages